Simultaneous Nadir Overpasses (SNOs) Predictions

Prediction of SNOs between METOP-A and TERRA Satellite Orbit:

Table of predicted SNOs for the next 14.0 days since TLE Epoch: 10/1/2016
Index Date (METOP-A) Time (METOP-A) Lat,Lon (METOP-A) SZA (METOP-A ) Date (TERRA) Time (TERRA) Lat,Lon (TERRA) SZA (TERRA ) Distance(km) Time Diff (sec)
1 10/01/2016 05:38:24 -81.28, -38.19 92.40 10/01/2016 05:39:14 -81.28, -38.02 92.36 2.88 50
2 10/01/2016 06:29:03 81.29, 129.97 87.72 10/01/2016 06:28:39 81.30, 130.08 87.73 2.15 24
3 10/04/2016 01:12:46 -81.29, 28.59 91.25 10/04/2016 01:13:29 -81.28, 28.52 91.24 1.24 43
4 10/04/2016 02:03:26 81.29,-163.65 88.82 10/04/2016 02:02:55 81.29,-163.78 88.79 2.32 31
5 10/06/2016 20:47:09 -81.29, 94.95 90.16 10/06/2016 20:47:44 -81.29, 94.99 90.13 0.71 35
6 10/06/2016 21:37:49 81.29, -97.31 89.91 10/06/2016 21:37:10 81.29, -97.34 89.89 0.78 39
7 10/09/2016 16:21:31 -81.29, 161.29 89.08 10/09/2016 16:21:58 -81.28, 161.40 89.05 1.89 27
8 10/09/2016 17:12:11 81.29, -30.99 90.99 10/09/2016 17:11:24 81.28, -30.96 90.97 0.98 47
9 10/12/2016 11:55:53 -81.29,-132.02 87.97 10/12/2016 11:56:12 -81.30,-131.89 87.94 2.38 19




NCC Satellite Simultaneous Nadir Overpasses (SNOs) Prediction Service
